Time,TemperatureF,DewpointF,PressureIn,WindDirection,WindDirectionDegrees,WindSpeedMPH,WindSpeedGustMPH,Humidity,HourlyPrecipIn,Conditions,Clouds,dailyrainin,SoftwareType,DateUTC
2013-01-27 00:00:00,31.2,28.6,30.36,NNE,28,4.0,8.0,90,0.00,,---,0.00,VWS V14.01,2013-01-27 05:00:00,
2013-01-27 00:01:00,31.2,28.6,30.36,NE,40,8.0,8.0,90,0.00,,---,0.00,VWS V14.01,2013-01-27 05:01:00,
2013-01-27 00:03:00,31.1,28.5,30.36,NE,46,3.0,8.0,90,0.00,,---,0.00,VWS V14.01,2013-01-27 05:03:00,
2013-01-27 00:08:00,31.0,28.7,30.36,NNE,28,7.0,8.0,91,0.00,,---,0.00,VWS V14.01,2013-01-27 05:08:00,
2013-01-27 00:13:00,30.9,28.6,30.36,NE,36,5.0,8.0,91,0.00,,---,0.00,VWS V14.01,2013-01-27 05:13:00,
2013-01-27 00:18:00,30.8,28.5,30.36,NE,46,4.0,8.0,91,0.00,,---,0.00,VWS V14.01,2013-01-27 05:18:00,
2013-01-27 00:23:00,30.8,28.5,30.36,ENE,60,7.0,7.0,91,0.00,,---,0.00,VWS V14.01,2013-01-27 05:23:00,
2013-01-27 00:28:00,30.8,28.5,30.36,NE,40,7.0,8.0,91,0.00,,---,0.00,VWS V14.01,2013-01-27 05:28:00,
2013-01-27 00:33:00,30.7,28.4,30.36,NE,39,5.0,7.0,91,0.00,,---,0.00,VWS V14.01,2013-01-27 05:33:00,
2013-01-27 00:38:00,30.7,28.4,30.36,NNE,28,7.0,9.0,91,0.00,,---,0.00,VWS V14.01,2013-01-27 05:38:00,
2013-01-27 00:43:00,30.7,28.7,30.36,NE,45,2.0,5.0,92,0.00,,---,0.00,VWS V14.01,2013-01-27 05:43:00,
2013-01-27 00:48:00,30.6,28.6,30.36,NE,36,7.0,10.0,92,0.00,,---,0.00,VWS V14.01,2013-01-27 05:48:00,
2013-01-27 00:53:00,30.6,28.6,30.36,NE,46,8.0,9.0,92,0.00,,---,0.00,VWS V14.01,2013-01-27 05:53:00,
2013-01-27 00:58:00,30.5,28.5,30.36,NE,46,7.0,8.0,92,0.00,,---,0.00,VWS V14.01,2013-01-27 05:58:00,
2013-01-27 01:03:00,30.5,28.5,30.36,NE,55,5.0,7.0,92,0.00,,---,0.00,VWS V14.01,2013-01-27 06:03:00,
2013-01-27 01:08:00,30.5,28.5,30.36,NE,53,6.0,9.0,92,0.00,,---,0.00,VWS V14.01,2013-01-27 06:08:00,
2013-01-27 01:13:00,30.5,28.5,30.37,NE,52,4.0,8.0,92,0.00,,---,0.00,VWS V14.01,2013-01-27 06:13:00,
2013-01-27 01:18:00,30.5,28.5,30.37,NNE,33,8.0,8.0,92,0.00,,---,0.00,VWS V14.01,2013-01-27 06:18:00,
2013-01-27 01:23:00,30.5,28.5,30.37,NE,35,7.0,11.0,92,0.00,,---,0.00,VWS V14.01,2013-01-27 06:23:00,
2013-01-27 01:28:00,30.5,28.5,30.37,NNE,22,8.0,8.0,92,0.00,,---,0.00,VWS V14.01,2013-01-27 06:28:00,
2013-01-27 01:33:00,30.6,28.8,30.38,NE,44,4.0,8.0,93,0.00,,---,0.00,VWS V14.01,2013-01-27 06:33:00,
2013-01-27 01:38:00,30.6,28.8,30.38,NE,38,7.0,13.0,93,0.00,,---,0.00,VWS V14.01,2013-01-27 06:38:00,
2013-01-27 01:43:00,30.5,28.5,30.39,NNE,24,9.0,12.0,92,0.00,,---,0.00,VWS V14.01,2013-01-27 06:43:00,
2013-01-27 01:48:00,30.5,28.7,30.39,NE,37,8.0,8.0,93,0.00,,---,0.00,VWS V14.01,2013-01-27 06:48:00,
2013-01-27 01:53:00,30.7,28.9,30.39,NNE,32,10.0,11.0,93,0.00,,---,0.00,VWS V14.01,2013-01-27 06:53:00,
2013-01-27 01:58:00,30.7,28.7,30.39,NNE,19,7.0,7.0,92,0.00,,---,0.00,VWS V14.01,2013-01-27 06:58:00,
2013-01-27 02:03:00,30.8,29.0,30.40,NE,34,8.0,8.0,93,0.00,,---,0.00,VWS V14.01,2013-01-27 07:03:00,
2013-01-27 02:08:00,30.8,29.0,30.40,NE,48,5.0,9.0,93,0.00,,---,0.00,VWS V14.01,2013-01-27 07:08:00,
2013-01-27 02:13:00,30.8,29.0,30.40,NE,40,8.0,12.0,93,0.00,,---,0.00,VWS V14.01,2013-01-27 07:13:00,
2013-01-27 02:18:00,30.7,28.9,30.40,NE,35,9.0,10.0,93,0.00,,---,0.00,VWS V14.01,2013-01-27 07:18:00,
2013-01-27 02:23:00,30.7,28.9,30.40,NE,48,4.0,8.0,93,0.00,,---,0.00,VWS V14.01,2013-01-27 07:23:00,
2013-01-27 02:28:00,30.8,29.0,30.41,NE,40,8.0,9.0,93,0.00,,---,0.00,VWS V14.01,2013-01-27 07:28:00,
2013-01-27 02:33:00,30.8,28.8,30.41,NNE,32,6.0,7.0,92,0.00,,---,0.00,VWS V14.01,2013-01-27 07:33:00,
2013-01-27 02:38:00,30.8,28.8,30.41,NE,42,5.0,5.0,92,0.00,,---,0.00,VWS V14.01,2013-01-27 07:38:00,
2013-01-27 02:43:00,30.8,28.8,30.41,NNE,33,4.0,5.0,92,0.00,,---,0.00,VWS V14.01,2013-01-27 07:43:00,
2013-01-27 02:48:00,30.7,28.7,30.41,North,9,4.0,7.0,92,0.00,,---,0.00,VWS V14.01,2013-01-27 07:48:00,
2013-01-27 02:53:00,30.7,28.7,30.41,NNE,17,2.0,6.0,92,0.00,,---,0.00,VWS V14.01,2013-01-27 07:53:00,
2013-01-27 02:58:00,30.6,28.6,30.41,NE,44,4.0,9.0,92,0.00,,---,0.00,VWS V14.01,2013-01-27 07:58:00,
2013-01-27 03:03:00,30.5,28.5,30.41,NNE,14,5.0,6.0,92,0.00,,---,0.00,VWS V14.01,2013-01-27 08:03:00,
2013-01-27 03:08:00,30.5,28.5,30.41,NNE,31,6.0,7.0,92,0.00,,---,0.00,VWS V14.01,2013-01-27 08:08:00,
2013-01-27 03:13:00,30.5,28.5,30.41,NE,49,1.0,4.0,92,0.00,,---,0.00,VWS V14.01,2013-01-27 08:13:00,
2013-01-27 03:18:00,30.4,28.4,30.41,North,360,4.0,8.0,92,0.00,,---,0.00,VWS V14.01,2013-01-27 08:18:00,
2013-01-27 03:23:00,30.3,28.3,30.41,NNE,13,4.0,4.0,92,0.00,,---,0.00,VWS V14.01,2013-01-27 08:23:00,
2013-01-27 03:28:00,30.3,28.3,30.41,NE,40,0.0,3.0,92,0.00,,---,0.00,VWS V14.01,2013-01-27 08:28:00,
2013-01-27 03:33:00,30.3,28.3,30.41,NNE,16,5.0,6.0,92,0.00,,---,0.00,VWS V14.01,2013-01-27 08:33:00,
2013-01-27 03:38:00,30.2,28.4,30.41,NE,35,6.0,9.0,93,0.00,,---,0.00,VWS V14.01,2013-01-27 08:38:00,
2013-01-27 03:43:00,30.1,28.3,30.41,North,5,3.0,7.0,93,0.00,,---,0.00,VWS V14.01,2013-01-27 08:43:00,
2013-01-27 03:48:00,30.1,28.3,30.41,NNE,22,3.0,5.0,93,0.00,,---,0.00,VWS V14.01,2013-01-27 08:48:00,
2013-01-27 03:53:00,30.0,28.0,30.41,NNW,344,6.0,6.0,92,0.00,,---,0.00,VWS V14.01,2013-01-27 08:53:00,
2013-01-27 03:58:00,30.0,28.2,30.41,North,5,2.0,6.0,93,0.00,,---,0.00,VWS V14.01,2013-01-27 08:58:00,
2013-01-27 04:03:00,29.8,28.0,30.41,North,11,3.0,4.0,93,0.00,,---,0.00,VWS V14.01,2013-01-27 09:03:00,
2013-01-27 04:08:00,29.8,28.0,30.42,NNE,28,4.0,7.0,93,0.00,,---,0.00,VWS V14.01,2013-01-27 09:08:00,
2013-01-27 04:13:00,29.8,28.0,30.42,NE,43,4.0,7.0,93,0.00,,---,0.00,VWS V14.01,2013-01-27 09:13:00,
2013-01-27 04:18:00,29.6,27.8,30.41,NNE,26,9.0,9.0,93,0.00,,---,0.00,VWS V14.01,2013-01-27 09:18:00,
2013-01-27 04:23:00,29.6,27.8,30.42,NNE,19,6.0,8.0,93,0.00,,---,0.00,VWS V14.01,2013-01-27 09:23:00,
2013-01-27 04:28:00,29.5,27.7,30.42,NNE,30,7.0,8.0,93,0.00,,---,0.00,VWS V14.01,2013-01-27 09:28:00,
2013-01-27 04:33:00,29.4,27.6,30.41,NNE,32,4.0,6.0,93,0.00,,---,0.00,VWS V14.01,2013-01-27 09:33:00,
2013-01-27 04:38:00,29.4,27.6,30.42,NNE,26,4.0,6.0,93,0.00,,---,0.00,VWS V14.01,2013-01-27 09:38:00,
2013-01-27 04:43:00,29.3,27.5,30.42,NNE,32,7.0,7.0,93,0.00,,---,0.00,VWS V14.01,2013-01-27 09:43:00,
2013-01-27 04:48:00,29.3,27.5,30.42,NNE,26,3.0,5.0,93,0.00,,---,0.00,VWS V14.01,2013-01-27 09:48:00,
2013-01-27 04:53:00,29.3,27.5,30.42,North,355,5.0,5.0,93,0.00,,---,0.00,VWS V14.01,2013-01-27 09:53:00,
2013-01-27 04:58:00,29.3,27.5,30.42,NNE,17,9.0,10.0,93,0.00,,---,0.00,VWS V14.01,2013-01-27 09:58:00,
2013-01-27 05:03:00,29.3,27.5,30.42,NNE,21,7.0,7.0,93,0.00,,---,0.00,VWS V14.01,2013-01-27 10:03:00,
2013-01-27 05:08:00,29.3,27.5,30.43,NE,37,6.0,6.0,93,0.00,,---,0.00,VWS V14.01,2013-01-27 10:08:00,
2013-01-27 05:13:00,29.3,27.5,30.43,NNE,26,5.0,6.0,93,0.00,,---,0.00,VWS V14.01,2013-01-27 10:13:00,
2013-01-27 05:18:00,29.3,27.5,30.43,NNE,26,2.0,5.0,93,0.00,,---,0.00,VWS V14.01,2013-01-27 10:18:00,
2013-01-27 05:23:00,29.4,27.6,30.43,NNE,25,3.0,6.0,93,0.00,,---,0.00,VWS V14.01,2013-01-27 10:23:00,
2013-01-27 05:28:00,29.4,27.6,30.44,NE,34,5.0,6.0,93,0.00,,---,0.00,VWS V14.01,2013-01-27 10:28:00,
2013-01-27 05:33:00,29.5,27.7,30.44,NNE,31,5.0,7.0,93,0.00,,---,0.00,VWS V14.01,2013-01-27 10:33:00,
2013-01-27 05:38:00,29.5,27.7,30.44,NNW,342,5.0,5.0,93,0.00,,---,0.00,VWS V14.01,2013-01-27 10:38:00,
2013-01-27 05:43:00,29.5,27.7,30.44,NNE,32,7.0,7.0,93,0.00,,---,0.00,VWS V14.01,2013-01-27 10:43:00,
2013-01-27 05:48:00,29.5,27.7,30.44,NE,35,4.0,6.0,93,0.00,,---,0.00,VWS V14.01,2013-01-27 10:48:00,
2013-01-27 05:53:00,29.4,27.6,30.44,NNE,28,5.0,8.0,93,0.00,,---,0.00,VWS V14.01,2013-01-27 10:53:00,
2013-01-27 05:58:00,29.4,27.6,30.44,NNE,15,4.0,6.0,93,0.00,,---,0.00,VWS V14.01,2013-01-27 10:58:00,
2013-01-27 06:03:00,29.4,27.6,30.44,NE,51,2.0,5.0,93,0.00,,---,0.00,VWS V14.01,2013-01-27 11:03:00,
2013-01-27 06:08:00,29.4,27.6,30.44,NE,50,4.0,4.0,93,0.00,,---,0.00,VWS V14.01,2013-01-27 11:08:00,
2013-01-27 06:13:00,29.3,27.5,30.45,NNE,25,3.0,4.0,93,0.00,,---,0.00,VWS V14.01,2013-01-27 11:13:00,
2013-01-27 06:18:00,29.3,27.5,30.45,NE,49,3.0,5.0,93,0.00,,---,0.00,VWS V14.01,2013-01-27 11:18:00,
2013-01-27 06:22:00,29.3,27.5,30.45,NE,47,4.0,7.0,93,0.00,,---,0.00,VWS V14.01,2013-01-27 11:22:00,
2013-01-27 06:27:00,29.2,27.4,30.45,NE,45,3.0,5.0,93,0.00,,---,0.00,VWS V14.01,2013-01-27 11:27:00,
2013-01-27 06:32:00,29.2,27.4,30.45,NE,53,3.0,6.0,93,0.00,,---,0.00,VWS V14.01,2013-01-27 11:32:00,
2013-01-27 06:38:00,29.1,27.3,30.45,NE,37,5.0,8.0,93,0.00,,---,0.00,VWS V14.01,2013-01-27 11:38:00,
2013-01-27 06:43:00,29.1,27.3,30.45,NE,40,6.0,7.0,93,0.00,,---,0.00,VWS V14.01,2013-01-27 11:43:00,
2013-01-27 06:47:00,29.1,27.3,30.45,NNE,30,7.0,8.0,93,0.00,,---,0.00,VWS V14.01,2013-01-27 11:47:00,
2013-01-27 06:52:00,29.1,27.6,30.45,NNE,21,7.0,7.0,94,0.00,,---,0.00,VWS V14.01,2013-01-27 11:52:00,
2013-01-27 06:57:00,29.1,27.6,30.45,NNE,22,4.0,6.0,94,0.00,,---,0.00,VWS V14.01,2013-01-27 11:57:00,
2013-01-27 07:02:00,29.1,27.6,30.46,NE,39,3.0,6.0,94,0.00,,---,0.00,VWS V14.01,2013-01-27 12:02:00,
2013-01-27 07:07:00,29.0,27.5,30.46,NNE,24,4.0,6.0,94,0.00,,---,0.00,VWS V14.01,2013-01-27 12:07:00,
2013-01-27 07:12:00,29.0,27.5,30.46,NE,40,4.0,6.0,94,0.00,,---,0.00,VWS V14.01,2013-01-27 12:12:00,
2013-01-27 07:17:00,29.1,27.6,30.46,NNE,24,9.0,9.0,94,0.00,,---,0.00,VWS V14.01,2013-01-27 12:17:00,
2013-01-27 07:22:00,29.1,27.6,30.46,NE,42,7.0,8.0,94,0.00,,---,0.00,VWS V14.01,2013-01-27 12:22:00,
2013-01-27 07:27:00,29.1,27.6,30.47,NE,34,5.0,6.0,94,0.00,,---,0.00,VWS V14.01,2013-01-27 12:27:00,
2013-01-27 07:32:00,29.2,27.7,30.47,NE,38,6.0,6.0,94,0.00,,---,0.00,VWS V14.01,2013-01-27 12:32:00,
2013-01-27 07:37:00,29.2,27.4,30.47,NE,45,5.0,6.0,93,0.00,,---,0.00,VWS V14.01,2013-01-27 12:37:00,
2013-01-27 07:42:00,29.3,27.5,30.47,NNE,31,6.0,7.0,93,0.00,,---,0.00,VWS V14.01,2013-01-27 12:42:00,
2013-01-27 07:47:00,29.4,27.6,30.48,North,5,6.0,8.0,93,0.00,,---,0.00,VWS V14.01,2013-01-27 12:47:00,
2013-01-27 07:52:00,29.5,28.0,30.48,NE,42,5.0,6.0,94,0.00,,---,0.00,VWS V14.01,2013-01-27 12:52:00,
2013-01-27 07:57:00,29.6,28.1,30.48,NNE,26,7.0,8.0,94,0.00,,---,0.00,VWS V14.01,2013-01-27 12:57:00,
2013-01-27 08:02:00,29.8,28.0,30.49,NNE,17,3.0,8.0,93,0.00,,---,0.00,VWS V14.01,2013-01-27 13:02:00,
2013-01-27 08:07:00,30.0,28.2,30.49,North,5,5.0,5.0,93,0.00,,---,0.00,VWS V14.01,2013-01-27 13:07:00,
2013-01-27 08:12:00,30.1,28.3,30.49,NNE,13,8.0,8.0,93,0.00,,---,0.00,VWS V14.01,2013-01-27 13:12:00,
2013-01-27 08:17:00,30.3,28.5,30.49,NNW,342,9.0,10.0,93,0.00,,---,0.00,VWS V14.01,2013-01-27 13:17:00,
2013-01-27 08:22:00,30.5,28.7,30.49,NE,47,7.0,7.0,93,0.00,,---,0.00,VWS V14.01,2013-01-27 13:22:00,
2013-01-27 08:27:00,30.7,28.9,30.50,NNE,30,10.0,10.0,93,0.00,,---,0.00,VWS V14.01,2013-01-27 13:27:00,
2013-01-27 08:32:00,31.0,29.2,30.50,NE,39,7.0,10.0,93,0.00,,---,0.00,VWS V14.01,2013-01-27 13:32:00,
2013-01-27 08:37:00,31.3,29.5,30.50,NE,43,9.0,11.0,93,0.00,,---,0.00,VWS V14.01,2013-01-27 13:37:00,
2013-01-27 08:42:00,31.6,29.8,30.51,NE,43,6.0,9.0,93,0.00,,---,0.00,VWS V14.01,2013-01-27 13:42:00,
2013-01-27 08:47:00,31.9,30.1,30.51,NE,49,7.0,8.0,93,0.00,,---,0.00,VWS V14.01,2013-01-27 13:47:00,
2013-01-27 08:52:00,32.1,30.0,30.51,NNE,15,6.0,6.0,92,0.00,,---,0.00,VWS V14.01,2013-01-27 13:52:00,
2013-01-27 08:57:00,32.4,30.3,30.51,NE,37,3.0,6.0,92,0.00,,---,0.00,VWS V14.01,2013-01-27 13:57:00,
2013-01-27 09:02:00,32.6,30.5,30.52,NE,44,10.0,10.0,92,0.00,,---,0.00,VWS V14.01,2013-01-27 14:02:00,
2013-01-27 09:07:00,32.9,30.8,30.52,NE,42,4.0,10.0,92,0.00,,---,0.00,VWS V14.01,2013-01-27 14:07:00,
2013-01-27 09:12:00,33.0,30.7,30.52,NNE,30,12.0,12.0,91,0.00,,---,0.00,VWS V14.01,2013-01-27 14:12:00,
2013-01-27 09:17:00,33.4,31.1,30.52,NNE,15,7.0,7.0,91,0.00,,---,0.00,VWS V14.01,2013-01-27 14:17:00,
2013-01-27 09:22:00,33.8,31.5,30.53,NE,34,6.0,9.0,91,0.00,,---,0.00,VWS V14.01,2013-01-27 14:22:00,
2013-01-27 09:27:00,34.1,31.5,30.53,NE,53,7.0,8.0,90,0.00,,---,0.00,VWS V14.01,2013-01-27 14:27:00,
2013-01-27 09:32:00,34.4,31.5,30.53,NE,51,8.0,8.0,89,0.00,,---,0.00,VWS V14.01,2013-01-27 14:32:00,
2013-01-27 09:37:00,34.6,31.7,30.53,NNE,30,6.0,7.0,89,0.00,,---,0.00,VWS V14.01,2013-01-27 14:37:00,
2013-01-27 09:42:00,34.9,31.7,30.53,NNW,327,5.0,7.0,88,0.00,,---,0.00,VWS V14.01,2013-01-27 14:42:00,
2013-01-27 09:47:00,35.1,31.6,30.54,NNE,26,11.0,12.0,87,0.00,,---,0.00,VWS V14.01,2013-01-27 14:47:00,
2013-01-27 09:52:00,35.2,31.4,30.54,NE,40,10.0,10.0,86,0.00,,---,0.00,VWS V14.01,2013-01-27 14:52:00,
2013-01-27 09:57:00,35.4,31.6,30.54,NNE,30,7.0,10.0,86,0.00,,---,0.00,VWS V14.01,2013-01-27 14:57:00,
2013-01-27 10:02:00,35.7,31.6,30.54,NNE,23,8.0,10.0,85,0.00,,---,0.00,VWS V14.01,2013-01-27 15:02:00,
2013-01-27 10:07:00,36.2,31.8,30.54,NNE,13,8.0,10.0,84,0.00,,---,0.00,VWS V14.01,2013-01-27 15:07:00,
2013-01-27 10:12:00,36.5,31.8,30.54,NE,37,8.0,8.0,83,0.00,,---,0.00,VWS V14.01,2013-01-27 15:12:00,
2013-01-27 10:17:00,36.9,31.6,30.54,East,95,9.0,10.0,81,0.00,,---,0.00,VWS V14.01,2013-01-27 15:17:00,
2013-01-27 10:22:00,37.2,31.0,30.54,East,83,13.0,15.0,78,0.00,,---,0.00,VWS V14.01,2013-01-27 15:22:00,
2013-01-27 10:27:00,37.3,31.1,30.54,East,90,13.0,13.0,78,0.00,,---,0.00,VWS V14.01,2013-01-27 15:27:00,
2013-01-27 10:32:00,37.5,31.0,30.54,ENE,71,5.0,9.0,77,0.00,,---,0.00,VWS V14.01,2013-01-27 15:32:00,
2013-01-27 10:37:00,37.8,31.2,30.55,East,86,7.0,8.0,77,0.00,,---,0.00,VWS V14.01,2013-01-27 15:37:00,
2013-01-27 10:42:00,38.1,30.9,30.55,NE,51,7.0,12.0,75,0.00,,---,0.00,VWS V14.01,2013-01-27 15:42:00,
2013-01-27 10:47:00,38.4,30.9,30.55,East,94,10.0,11.0,74,0.00,,---,0.00,VWS V14.01,2013-01-27 15:47:00,
2013-01-27 10:52:00,38.4,29.8,30.55,East,84,13.0,17.0,71,0.00,,---,0.00,VWS V14.01,2013-01-27 15:52:00,
2013-01-27 10:57:00,38.7,30.1,30.55,ENE,74,7.0,8.0,71,0.00,,---,0.00,VWS V14.01,2013-01-27 15:57:00,
2013-01-27 11:02:00,39.2,29.9,30.55,ENE,62,9.0,9.0,69,0.00,,---,0.00,VWS V14.01,2013-01-27 16:02:00,
2013-01-27 11:07:00,39.4,28.6,30.55,NE,43,9.0,13.0,65,0.00,,---,0.00,VWS V14.01,2013-01-27 16:07:00,
2013-01-27 11:12:00,39.6,28.4,30.54,East,84,10.0,10.0,64,0.00,,---,0.00,VWS V14.01,2013-01-27 16:12:00,
2013-01-27 11:17:00,39.5,27.6,30.54,ENE,65,14.0,14.0,62,0.00,,---,0.00,VWS V14.01,2013-01-27 16:17:00,
2013-01-27 11:22:00,39.1,26.8,30.53,ENE,76,10.0,13.0,61,0.00,,---,0.00,VWS V14.01,2013-01-27 16:22:00,
2013-01-27 11:27:00,39.4,26.7,30.53,East,82,16.0,16.0,60,0.00,,---,0.00,VWS V14.01,2013-01-27 16:27:00,
2013-01-27 11:32:00,39.4,26.7,30.53,ENE,61,14.0,14.0,60,0.00,,---,0.00,VWS V14.01,2013-01-27 16:32:00,
2013-01-27 11:37:00,39.5,26.4,30.53,East,84,11.0,14.0,59,0.00,,---,0.00,VWS V14.01,2013-01-27 16:37:00,
2013-01-27 11:42:00,40.0,27.2,30.52,East,87,13.0,13.0,60,0.00,,---,0.00,VWS V14.01,2013-01-27 16:42:00,
2013-01-27 11:47:00,39.9,25.9,30.52,East,86,10.0,11.0,57,0.00,,---,0.00,VWS V14.01,2013-01-27 16:47:00,
2013-01-27 11:52:00,40.1,26.1,30.52,NE,54,6.0,9.0,57,0.00,,---,0.00,VWS V14.01,2013-01-27 16:52:00,
2013-01-27 11:57:00,39.8,24.5,30.52,NNE,32,9.0,11.0,54,0.00,,---,0.00,VWS V14.01,2013-01-27 16:57:00,
2013-01-27 12:02:00,40.0,25.1,30.52,NE,39,8.0,8.0,55,0.00,,---,0.00,VWS V14.01,2013-01-27 17:02:00,
2013-01-27 12:07:00,40.2,24.9,30.51,NE,41,9.0,10.0,54,0.00,,---,0.00,VWS V14.01,2013-01-27 17:07:00,
2013-01-27 12:12:00,40.4,24.6,30.51,ENE,71,8.0,8.0,53,0.00,,---,0.00,VWS V14.01,2013-01-27 17:12:00,
2013-01-27 12:17:00,40.2,23.5,30.51,ENE,69,12.0,12.0,51,0.00,,---,0.00,VWS V14.01,2013-01-27 17:17:00,
2013-01-27 12:22:00,40.0,23.8,30.51,NE,46,9.0,9.0,52,0.00,,---,0.00,VWS V14.01,2013-01-27 17:22:00,
2013-01-27 12:27:00,40.3,24.5,30.51,NE,53,13.0,13.0,53,0.00,,---,0.00,VWS V14.01,2013-01-27 17:27:00,
2013-01-27 12:32:00,40.1,24.4,30.51,NNE,32,13.0,18.0,53,0.00,,---,0.00,VWS V14.01,2013-01-27 17:32:00,
2013-01-27 12:37:00,40.3,24.1,30.51,NE,55,12.0,12.0,52,0.00,,---,0.00,VWS V14.01,2013-01-27 17:37:00,
2013-01-27 12:42:00,40.3,24.1,30.51,ENE,62,14.0,14.0,52,0.00,,---,0.00,VWS V14.01,2013-01-27 17:42:00,
2013-01-27 12:47:00,40.5,23.3,30.50,NNE,30,9.0,10.0,50,0.00,,---,0.00,VWS V14.01,2013-01-27 17:47:00,
2013-01-27 12:52:00,40.8,23.6,30.50,NE,43,6.0,8.0,50,0.00,,---,0.00,VWS V14.01,2013-01-27 17:52:00,
2013-01-27 12:57:00,40.6,23.4,30.50,East,79,11.0,14.0,50,0.00,,---,0.00,VWS V14.01,2013-01-27 17:57:00,
2013-01-27 13:02:00,41.0,24.3,30.50,ENE,59,8.0,12.0,51,0.00,,---,0.00,VWS V14.01,2013-01-27 18:02:00,
2013-01-27 13:07:00,40.9,23.7,30.50,NE,53,9.0,12.0,50,0.00,,---,0.00,VWS V14.01,2013-01-27 18:07:00,
2013-01-27 13:12:00,40.6,23.4,30.50,ENE,58,9.0,9.0,50,0.00,,---,0.00,VWS V14.01,2013-01-27 18:12:00,
2013-01-27 13:17:00,41.2,24.0,30.50,ENE,61,12.0,13.0,50,0.00,,---,0.00,VWS V14.01,2013-01-27 18:17:00,
2013-01-27 13:22:00,40.7,23.0,30.50,ENE,74,11.0,11.0,49,0.00,,---,0.00,VWS V14.01,2013-01-27 18:22:00,
2013-01-27 13:27:00,40.9,24.2,30.50,NE,49,7.0,14.0,51,0.00,,---,0.00,VWS V14.01,2013-01-27 18:27:00,
2013-01-27 13:32:00,41.1,23.9,30.50,NE,52,10.0,11.0,50,0.00,,---,0.00,VWS V14.01,2013-01-27 18:32:00,
2013-01-27 13:37:00,41.1,24.4,30.50,ENE,58,8.0,8.0,51,0.00,,---,0.00,VWS V14.01,2013-01-27 18:37:00,
2013-01-27 13:42:00,41.1,24.4,30.49,ENE,76,12.0,13.0,51,0.00,,---,0.00,VWS V14.01,2013-01-27 18:42:00,
2013-01-27 13:47:00,41.1,25.3,30.49,East,82,8.0,9.0,53,0.00,,---,0.00,VWS V14.01,2013-01-27 18:47:00,
2013-01-27 13:52:00,41.5,26.1,30.49,ENE,69,8.0,11.0,54,0.00,,---,0.00,VWS V14.01,2013-01-27 18:52:00,
2013-01-27 13:57:00,41.5,26.1,30.49,ESE,105,11.0,11.0,54,0.00,,---,0.00,VWS V14.01,2013-01-27 18:57:00,
2013-01-27 14:02:00,41.8,26.4,30.49,NNE,28,8.0,15.0,54,0.00,,---,0.00,VWS V14.01,2013-01-27 19:02:00,
2013-01-27 14:07:00,41.6,25.8,30.48,East,90,13.0,13.0,53,0.00,,---,0.00,VWS V14.01,2013-01-27 19:07:00,
2013-01-27 14:12:00,41.3,26.4,30.48,East,101,7.0,8.0,55,0.00,,---,0.00,VWS V14.01,2013-01-27 19:12:00,
2013-01-27 14:17:00,41.2,25.8,30.48,East,84,8.0,15.0,54,0.00,,---,0.00,VWS V14.01,2013-01-27 19:17:00,
2013-01-27 14:22:00,41.5,27.0,30.48,ENE,59,8.0,10.0,56,0.00,,---,0.00,VWS V14.01,2013-01-27 19:22:00,
2013-01-27 14:27:00,41.7,26.7,30.48,East,88,7.0,14.0,55,0.00,,---,0.00,VWS V14.01,2013-01-27 19:27:00,
2013-01-27 14:32:00,41.9,27.4,30.48,NE,49,7.0,8.0,56,0.00,,---,0.00,VWS V14.01,2013-01-27 19:32:00,
2013-01-27 14:37:00,42.0,26.6,30.48,East,86,8.0,14.0,54,0.00,,---,0.00,VWS V14.01,2013-01-27 19:37:00,
2013-01-27 14:42:00,42.0,26.6,30.48,East,83,5.0,7.0,54,0.00,,---,0.00,VWS V14.01,2013-01-27 19:42:00,
2013-01-27 14:47:00,41.5,27.8,30.48,ESE,102,13.0,14.0,58,0.00,,---,0.00,VWS V14.01,2013-01-27 19:47:00,
2013-01-27 14:52:00,41.8,27.7,30.49,ESE,103,10.0,10.0,57,0.00,,---,0.00,VWS V14.01,2013-01-27 19:52:00,
2013-01-27 14:57:00,41.7,27.6,30.49,ENE,63,11.0,14.0,57,0.00,,---,0.00,VWS V14.01,2013-01-27 19:57:00,
2013-01-27 15:02:00,41.6,27.9,30.49,East,87,11.0,11.0,58,0.00,,---,0.00,VWS V14.01,2013-01-27 20:02:00,
2013-01-27 15:07:00,41.5,28.3,30.49,ENE,78,10.0,14.0,59,0.00,,---,0.00,VWS V14.01,2013-01-27 20:07:00,
2013-01-27 15:12:00,41.3,26.8,30.49,East,84,8.0,15.0,56,0.00,,---,0.00,VWS V14.01,2013-01-27 20:12:00,
2013-01-27 15:17:00,41.1,26.6,30.49,East,100,14.0,15.0,56,0.00,,---,0.00,VWS V14.01,2013-01-27 20:17:00,
2013-01-27 15:22:00,41.1,27.5,30.49,East,99,10.0,14.0,58,0.00,,---,0.00,VWS V14.01,2013-01-27 20:22:00,
2013-01-27 15:27:00,41.3,28.5,30.49,East,82,7.0,13.0,60,0.00,,---,0.00,VWS V14.01,2013-01-27 20:27:00,
2013-01-27 15:32:00,41.7,27.6,30.49,ESE,102,9.0,16.0,57,0.00,,---,0.00,VWS V14.01,2013-01-27 20:32:00,
2013-01-27 15:37:00,41.4,29.0,30.50,East,93,13.0,15.0,61,0.00,,---,0.00,VWS V14.01,2013-01-27 20:37:00,
2013-01-27 15:42:00,41.6,27.9,30.50,ENE,78,12.0,13.0,58,0.00,,---,0.00,VWS V14.01,2013-01-27 20:42:00,
2013-01-27 15:47:00,41.3,27.6,30.50,East,86,13.0,15.0,58,0.00,,---,0.00,VWS V14.01,2013-01-27 20:47:00,
2013-01-27 15:52:00,41.5,27.8,30.50,ENE,67,10.0,12.0,58,0.00,,---,0.00,VWS V14.01,2013-01-27 20:52:00,
2013-01-27 15:57:00,41.4,27.8,30.50,East,85,8.0,14.0,58,0.00,,---,0.00,VWS V14.01,2013-01-27 20:57:00,
2013-01-27 16:02:00,41.5,27.8,30.50,East,96,9.0,14.0,58,0.00,,---,0.00,VWS V14.01,2013-01-27 21:02:00,
2013-01-27 16:07:00,41.5,27.8,30.50,ENE,77,10.0,13.0,58,0.00,,---,0.00,VWS V14.01,2013-01-27 21:07:00,
2013-01-27 16:12:00,41.5,27.8,30.50,East,82,10.0,14.0,58,0.00,,---,0.00,VWS V14.01,2013-01-27 21:12:00,
2013-01-27 16:17:00,41.6,27.9,30.50,ENE,75,8.0,10.0,58,0.00,,---,0.00,VWS V14.01,2013-01-27 21:17:00,
2013-01-27 16:22:00,41.6,27.9,30.50,ENE,58,5.0,9.0,58,0.00,,---,0.00,VWS V14.01,2013-01-27 21:22:00,
2013-01-27 16:27:00,41.6,28.4,30.50,East,95,10.0,10.0,59,0.00,,---,0.00,VWS V14.01,2013-01-27 21:27:00,
2013-01-27 16:32:00,41.4,28.6,30.50,ENE,62,4.0,10.0,60,0.00,,---,0.00,VWS V14.01,2013-01-27 21:32:00,
2013-01-27 16:37:00,41.2,28.4,30.50,ENE,67,8.0,9.0,60,0.00,,---,0.00,VWS V14.01,2013-01-27 21:37:00,
2013-01-27 16:42:00,41.1,28.7,30.50,ENE,63,11.0,11.0,61,0.00,,---,0.00,VWS V14.01,2013-01-27 21:42:00,
2013-01-27 16:47:00,40.9,28.5,30.50,ENE,61,5.0,10.0,61,0.00,,---,0.00,VWS V14.01,2013-01-27 21:47:00,
2013-01-27 16:52:00,40.8,28.8,30.51,ENE,57,7.0,9.0,62,0.00,,---,0.00,VWS V14.01,2013-01-27 21:52:00,
2013-01-27 16:57:00,40.7,28.7,30.51,ENE,68,5.0,9.0,62,0.00,,---,0.00,VWS V14.01,2013-01-27 21:57:00,
2013-01-27 17:02:00,40.6,29.0,30.52,ENE,71,3.0,8.0,63,0.00,,---,0.00,VWS V14.01,2013-01-27 22:02:00,
2013-01-27 17:07:00,40.6,29.4,30.52,East,80,8.0,8.0,64,0.00,,---,0.00,VWS V14.01,2013-01-27 22:07:00,
2013-01-27 17:12:00,40.5,29.3,30.52,ENE,68,4.0,9.0,64,0.00,,---,0.00,VWS V14.01,2013-01-27 22:12:00,
2013-01-27 17:17:00,40.4,29.2,30.53,ENE,74,3.0,8.0,64,0.00,,---,0.00,VWS V14.01,2013-01-27 22:17:00,
2013-01-27 17:22:00,40.2,29.0,30.53,ENE,59,5.0,8.0,64,0.00,,---,0.00,VWS V14.01,2013-01-27 22:22:00,
2013-01-27 17:27:00,39.9,29.1,30.53,ENE,75,8.0,8.0,65,0.00,,---,0.00,VWS V14.01,2013-01-27 22:27:00,
2013-01-27 17:32:00,39.7,28.9,30.52,East,89,6.0,9.0,65,0.00,,---,0.00,VWS V14.01,2013-01-27 22:32:00,
2013-01-27 17:37:00,39.5,28.7,30.52,ENE,76,4.0,8.0,65,0.00,,---,0.00,VWS V14.01,2013-01-27 22:37:00,
2013-01-27 17:42:00,39.3,28.5,30.52,ENE,59,5.0,8.0,65,0.00,,---,0.00,VWS V14.01,2013-01-27 22:42:00,
2013-01-27 17:47:00,39.1,28.7,30.51,ENE,68,4.0,7.0,66,0.00,,---,0.00,VWS V14.01,2013-01-27 22:47:00,
2013-01-27 17:52:00,38.9,28.5,30.51,ENE,66,4.0,8.0,66,0.00,,---,0.00,VWS V14.01,2013-01-27 22:52:00,
2013-01-27 17:57:00,38.7,28.7,30.51,ENE,70,5.0,7.0,67,0.00,,---,0.00,VWS V14.01,2013-01-27 22:57:00,
2013-01-27 18:02:00,38.6,28.6,30.52,ENE,61,3.0,7.0,67,0.00,,---,0.00,VWS V14.01,2013-01-27 23:02:00,
2013-01-27 18:07:00,38.4,28.8,30.52,ENE,64,5.0,7.0,68,0.00,,---,0.00,VWS V14.01,2013-01-27 23:07:00,
2013-01-27 18:12:00,38.3,28.7,30.52,ENE,76,4.0,5.0,68,0.00,,---,0.00,VWS V14.01,2013-01-27 23:12:00,
2013-01-27 18:17:00,38.3,28.7,30.51,East,79,6.0,7.0,68,0.00,,---,0.00,VWS V14.01,2013-01-27 23:17:00,
2013-01-27 18:22:00,38.2,28.6,30.52,East,85,6.0,7.0,68,0.00,,---,0.00,VWS V14.01,2013-01-27 23:22:00,
2013-01-27 18:27:00,38.1,28.5,30.52,East,83,3.0,7.0,68,0.00,,---,0.00,VWS V14.01,2013-01-27 23:27:00,
2013-01-27 18:32:00,38.1,28.5,30.52,ENE,77,3.0,6.0,68,0.00,,---,0.00,VWS V14.01,2013-01-27 23:32:00,
2013-01-27 18:37:00,38.0,28.4,30.53,ENE,68,4.0,6.0,68,0.00,,---,0.00,VWS V14.01,2013-01-27 23:37:00,
2013-01-27 18:42:00,37.9,28.3,30.52,East,81,6.0,7.0,68,0.00,,---,0.00,VWS V14.01,2013-01-27 23:42:00,
2013-01-27 18:47:00,37.8,28.2,30.53,ENE,73,5.0,7.0,68,0.00,,---,0.00,VWS V14.01,2013-01-27 23:47:00,
2013-01-27 18:52:00,37.8,28.2,30.53,ENE,61,4.0,5.0,68,0.00,,---,0.00,VWS V14.01,2013-01-27 23:52:00,
2013-01-27 18:57:00,37.7,28.1,30.53,ENE,58,5.0,7.0,68,0.00,,---,0.00,VWS V14.01,2013-01-27 23:57:00,
2013-01-27 19:02:00,37.6,28.0,30.53,ENE,57,4.0,5.0,68,0.00,,---,0.00,VWS V14.01,2013-01-28 00:02:00,
2013-01-27 19:07:00,37.4,28.2,30.52,NE,53,3.0,5.0,69,0.00,,---,0.00,VWS V14.01,2013-01-28 00:07:00,
2013-01-27 19:12:00,37.3,28.1,30.53,NE,46,6.0,7.0,69,0.00,,---,0.00,VWS V14.01,2013-01-28 00:12:00,
2013-01-27 19:17:00,37.2,28.0,30.53,NE,47,2.0,8.0,69,0.00,,---,0.00,VWS V14.01,2013-01-28 00:17:00,
2013-01-27 19:22:00,37.1,28.2,30.53,ENE,69,4.0,5.0,70,0.00,,---,0.00,VWS V14.01,2013-01-28 00:22:00,
2013-01-27 19:27:00,37.0,28.1,30.52,ENE,62,5.0,6.0,70,0.00,,---,0.00,VWS V14.01,2013-01-28 00:27:00,
2013-01-27 19:32:00,36.8,28.0,30.52,ENE,60,4.0,7.0,70,0.00,,---,0.00,VWS V14.01,2013-01-28 00:32:00,
2013-01-27 19:37:00,36.6,28.1,30.53,ENE,59,3.0,7.0,71,0.00,,---,0.00,VWS V14.01,2013-01-28 00:37:00,
2013-01-27 19:42:00,36.5,28.0,30.52,NE,55,5.0,7.0,71,0.00,,---,0.00,VWS V14.01,2013-01-28 00:42:00,
2013-01-27 19:47:00,36.4,27.9,30.52,ENE,65,3.0,6.0,71,0.00,,---,0.00,VWS V14.01,2013-01-28 00:47:00,
2013-01-27 19:52:00,36.4,27.9,30.52,ENE,63,3.0,6.0,71,0.00,,---,0.00,VWS V14.01,2013-01-28 00:52:00,
2013-01-27 19:57:00,36.2,27.7,30.52,ENE,77,2.0,4.0,71,0.00,,---,0.00,VWS V14.01,2013-01-28 00:57:00,
2013-01-27 20:02:00,36.1,27.6,30.52,ENE,74,3.0,4.0,71,0.00,,---,0.00,VWS V14.01,2013-01-28 01:02:00,
2013-01-27 20:07:00,36.1,28.0,30.51,East,88,7.0,8.0,72,0.00,,---,0.00,VWS V14.01,2013-01-28 01:07:00,
2013-01-27 20:12:00,36.1,28.0,30.51,East,81,5.0,9.0,72,0.00,,---,0.00,VWS V14.01,2013-01-28 01:12:00,
2013-01-27 20:17:00,36.0,27.9,30.51,ENE,64,4.0,7.0,72,0.00,,---,0.00,VWS V14.01,2013-01-28 01:17:00,
2013-01-27 20:22:00,35.9,28.1,30.51,ENE,75,5.0,8.0,73,0.00,,---,0.00,VWS V14.01,2013-01-28 01:22:00,
2013-01-27 20:27:00,35.9,28.4,30.51,ENE,63,5.0,7.0,74,0.00,,---,0.00,VWS V14.01,2013-01-28 01:27:00,
2013-01-27 20:32:00,35.9,28.4,30.52,NE,54,3.0,7.0,74,0.00,,---,0.00,VWS V14.01,2013-01-28 01:32:00,
2013-01-27 20:37:00,35.8,28.7,30.52,NE,53,2.0,4.0,75,0.00,,---,0.00,VWS V14.01,2013-01-28 01:37:00,
2013-01-27 20:42:00,35.7,28.6,30.52,ENE,62,2.0,4.0,75,0.00,,---,0.00,VWS V14.01,2013-01-28 01:42:00,
2013-01-27 20:47:00,35.8,28.7,30.52,NE,56,4.0,4.0,75,0.00,,---,0.00,VWS V14.01,2013-01-28 01:47:00,
2013-01-27 20:52:00,35.8,28.7,30.52,NE,54,2.0,3.0,75,0.00,,---,0.00,VWS V14.01,2013-01-28 01:52:00,
2013-01-27 20:57:00,35.8,28.7,30.52,NE,54,3.0,4.0,75,0.00,,---,0.00,VWS V14.01,2013-01-28 01:57:00,
2013-01-27 21:02:00,35.7,28.6,30.51,ENE,73,4.0,5.0,75,0.00,,---,0.00,VWS V14.01,2013-01-28 02:02:00,
2013-01-27 21:07:00,35.6,28.5,30.51,NE,54,4.0,7.0,75,0.00,,---,0.00,VWS V14.01,2013-01-28 02:07:00,
2013-01-27 21:12:00,35.3,28.2,30.52,NE,53,4.0,6.0,75,0.00,,---,0.00,VWS V14.01,2013-01-28 02:12:00,
2013-01-27 21:16:00,35.2,28.4,30.51,ENE,57,4.0,5.0,76,0.00,,---,0.00,VWS V14.01,2013-01-28 02:16:00,
2013-01-27 21:21:00,35.2,28.4,30.51,ENE,60,4.0,5.0,76,0.00,,---,0.00,VWS V14.01,2013-01-28 02:21:00,
2013-01-27 21:26:00,35.2,28.4,30.51,ENE,66,5.0,5.0,76,0.00,,---,0.00,VWS V14.01,2013-01-28 02:26:00,
2013-01-27 21:31:00,35.1,28.3,30.51,NE,53,4.0,7.0,76,0.00,,---,0.00,VWS V14.01,2013-01-28 02:31:00,
2013-01-27 21:36:00,35.1,28.3,30.51,ENE,58,4.0,7.0,76,0.00,,---,0.00,VWS V14.01,2013-01-28 02:36:00,
2013-01-27 21:41:00,35.0,28.2,30.51,ENE,62,3.0,7.0,76,0.00,,---,0.00,VWS V14.01,2013-01-28 02:41:00,
2013-01-27 21:46:00,34.8,28.0,30.51,ENE,58,4.0,5.0,76,0.00,,---,0.00,VWS V14.01,2013-01-28 02:46:00,
2013-01-27 21:51:00,34.7,28.2,30.51,ENE,65,5.0,7.0,77,0.00,,---,0.00,VWS V14.01,2013-01-28 02:51:00,
2013-01-27 21:56:00,34.7,28.2,30.51,ENE,68,5.0,7.0,77,0.00,,---,0.00,VWS V14.01,2013-01-28 02:56:00,
2013-01-27 22:01:00,34.7,28.2,30.50,ENE,76,4.0,7.0,77,0.00,,---,0.00,VWS V14.01,2013-01-28 03:01:00,
2013-01-27 22:06:00,34.8,28.3,30.50,ENE,78,4.0,7.0,77,0.00,,---,0.00,VWS V14.01,2013-01-28 03:06:00,
2013-01-27 22:11:00,34.9,28.4,30.50,East,82,5.0,8.0,77,0.00,,---,0.00,VWS V14.01,2013-01-28 03:11:00,
2013-01-27 22:16:00,35.0,28.5,30.50,East,86,5.0,8.0,77,0.00,,---,0.00,VWS V14.01,2013-01-28 03:16:00,
2013-01-27 22:21:00,35.1,28.9,30.50,ENE,61,4.0,7.0,78,0.00,,---,0.00,VWS V14.01,2013-01-28 03:21:00,
2013-01-27 22:26:00,35.2,29.0,30.50,ENE,78,4.0,7.0,78,0.00,,---,0.00,VWS V14.01,2013-01-28 03:26:00,
2013-01-27 22:31:00,35.3,29.1,30.49,ENE,76,5.0,7.0,78,0.00,,---,0.00,VWS V14.01,2013-01-28 03:31:00,
2013-01-27 22:36:00,35.3,29.1,30.50,ENE,70,5.0,8.0,78,0.00,,---,0.00,VWS V14.01,2013-01-28 03:36:00,
2013-01-27 22:41:00,35.4,29.2,30.50,East,90,5.0,8.0,78,0.00,,---,0.00,VWS V14.01,2013-01-28 03:41:00,
2013-01-27 22:46:00,35.5,29.3,30.49,East,88,7.0,7.0,78,0.00,,---,0.00,VWS V14.01,2013-01-28 03:46:00,
2013-01-27 22:51:00,35.6,29.4,30.50,ENE,62,8.0,8.0,78,0.00,,---,0.00,VWS V14.01,2013-01-28 03:51:00,
2013-01-27 22:56:00,35.5,29.3,30.50,ENE,59,7.0,8.0,78,0.00,,---,0.00,VWS V14.01,2013-01-28 03:56:00,
2013-01-27 23:01:00,35.4,29.2,30.49,ENE,70,7.0,8.0,78,0.00,,---,0.00,VWS V14.01,2013-01-28 04:01:00,
2013-01-27 23:06:00,35.4,29.2,30.50,East,82,5.0,10.0,78,0.00,,---,0.00,VWS V14.01,2013-01-28 04:06:00,
2013-01-27 23:11:00,35.3,29.1,30.50,ENE,75,7.0,9.0,78,0.00,,---,0.00,VWS V14.01,2013-01-28 04:11:00,
2013-01-27 23:16:00,35.3,29.1,30.49,ENE,62,7.0,9.0,78,0.00,,---,0.00,VWS V14.01,2013-01-28 04:16:00,
2013-01-27 23:21:00,35.2,29.0,30.49,NE,36,6.0,10.0,78,0.00,,---,0.00,VWS V14.01,2013-01-28 04:21:00,
2013-01-27 23:26:00,35.0,28.9,30.50,NE,56,7.0,11.0,78,0.00,,---,0.00,VWS V14.01,2013-01-28 04:26:00,
2013-01-27 23:31:00,35.0,28.9,30.50,NE,51,8.0,11.0,78,0.00,,---,0.00,VWS V14.01,2013-01-28 04:31:00,
2013-01-27 23:36:00,34.8,28.6,30.50,NE,39,7.0,10.0,78,0.00,,---,0.00,VWS V14.01,2013-01-28 04:36:00,
2013-01-27 23:41:00,34.8,28.6,30.50,NE,44,5.0,9.0,78,0.00,,---,0.00,VWS V14.01,2013-01-28 04:41:00,
2013-01-27 23:46:00,34.7,28.5,30.49,NE,48,6.0,10.0,78,0.00,,---,0.00,VWS V14.01,2013-01-28 04:46:00,
2013-01-27 23:51:00,34.6,28.5,30.49,NNE,30,6.0,9.0,78,0.00,,---,0.00,VWS V14.01,2013-01-28 04:51:00,
2013-01-27 23:56:00,34.6,28.5,30.49,NE,47,5.0,9.0,78,0.00,,---,0.00,VWS V14.01,2013-01-28 04:56:00,